Temperature
18 18 18 18 18 18 18 18 18 18 19 19 19 19 19 19 19 19 19 18 18 18 18 18 18 18 18 18 18 18 18 18 18 18 18 18 18 18 18 18 18 18 18
18 18 18 18 18 18 18 18 19 19 19 20 20 20 20 19 19 19 19 18 18 18 18 18 18 18 18 18 18 17 17 17 17 17 17 17 17 17 18 18 18 18 17
18 19 19 18 18 18 18 18 19 19 20 20 20 20 20 20 19 19 19 18 18 18 18 18 18 18 18 18 18 17 17 17 17 17 17 17 17 17 17 17 17 17 17
18 19 19 19 18 18 18 19 19 19 19 19 19 20 20 20 19 19 19 18 18 18 18 18 18 18 18 17 17 17 17 17 17 17 17 17 17 17 17 17 17 17 17
18 18 19 19 19 18 18 18 19 19 19 19 19 19 19 19 19 19 19 19 18 18 18 18 18 18 18 17 17 17 17 17 17 17 17 17 17 17 17 17 17 17 17
18 18 18 18 19 18 18 18 18 18 19 19 19 19 19 19 19 19 19 19 19 18 18 18 18 18 18 18 17 17 17 17 17 17 17 17 17 17 17 17 17 17 17
18 18 18 18 18 18 18 18 18 18 18 18 19 19 19 19 19 19 19 19 19 19 18 18 18 18 18 18 18 17 17 17 17 17 17 17 17 17 17 17 17 17 17
18 18 18 18 18 18 18 18 18 18 18 18 18 18 18 19 19 19 19 19 19 19 18 18 18 17 17 17 18 17 17 17 17 17 17 17 17 17 17 17 17 17 17
17 17 17 18 18 18 18 18 18 18 17 17 17 17 18 18 18 18 18 18 18 19 18 18 18 18 18 18 17 17 17 17 17 17 17 17 17 17 17 17 17 17 17
16 16 17 17 17 17 17 18 18 17 17 17 17 17 17 18 18 18 18 18 18 18 18 18 18 18 18 17 17 17 17 17 17 17 17 17 17 17 17 17 17 17 17
16 16 16 17 17 17 17 17 17 17 17 17 17 17 17 17 17 17 18 18 18 18 18 18 18 18 18 17 17 17 17 17 17 17 17 17 17 17 17 17 17 17 16
15 16 16 16 16 17 17 17 17 17 17 17 17 17 17 17 17 17 17 17 17 18 17 18 18 18 18 17 17 17 17 17 17 17 17 17 17 17 17 17 16 16 16
15 15 16 16 16 16 16 16 16 16 16 16 16 17 17 17 17 17 17 17 17 17 17 17 17 17 17 17 17 17 17 17 17 17 16 16 16 16 16 16 16 16 16
14 15 15 15 15 16 16 16 16 16 16 16 16 16 16 16 16 16 16 16 16 16 17 17 17 17 17 17 17 16 16 16 16 16 16 16 16 16 16 16 16 16 15
14 14 14 14 15 15 15 15 15 16 15 16 16 16 16 16 16 16 16 16 16 16 16 16 16 16 16 16 16 16 16 16 16 16 16 16 16 16 15 15 15 15 15
14 14 14 14 14 14 14 15 15 15 15 15 15 15 15 15 15 15 15 15 15 15 15 16 16 16 16 16 16 15 15 15 16 16 16 16 15 15 15 15 15 15 15
13 13 13 13 13 13 14 14 14 14 14 14 15 15 15 15 15 15 15 15 15 15 15 15 15 15 15 15 15 15 15 15 15 15 15 15 15 15 15 15 14 14 14
13 13 13 13 13 13 13 13 13 13 14 14 14 14 14 14 14 14 14 14 14 14 14 14 14 14 14 15 15 15 15 15 15 15 15 15 15 15 14 14 14 14 14
12 12 12 12 13 13 13 13 13 13 13 13 13 13 14 14 14 14 14 14 14 14 14 14 14 14 14 14 14 14 14 14 14 14 14 14 14 14 14 14 14 14 14
12 12 12 12 12 13 13 13 13 13 13 13 13 13 13 13 13 13 13 13 13 13 13 13 14 14 14 14 14 14 14 14 14 14 14 14 14 14 14 13 13 13 13
11 11 11 12 12 12 13 13 13 12 12 13 13 13 13 13 13 13 13 13 13 13 13 13 13 13 13 13 13 13 13 13 13 13 13 13 13 13 13 13 13 13 13
11 11 11 11 11 12 12 12 12 12 12 12 12 12 12 12 12 12 12 12 12 13 13 13 13 13 13 13 13 13 13 13 12 12 12 12 12 12 12 12 12 12 12
10 10 10 10 10 11 11 12 12 12 12 12 12 12 12 12 12 12 12 12 12 12 13 13 13 13 13 13 13 13 13 13 13 12 12 12 11 12 11 11 11 11 11
10 10 10 10 10 10 11 11 11 11 11 12 12 12 12 12 12 12 12 12 12 12 13 13 13 13 13 13 13 13 13 13 12 12 12 11 11 11 10 10 10 10 10
9 9 9 9 9 10 10 11 11 11 11 11 11 12 12 12 12 12 12 12 12 12 12 13 13 13 13 13 13 13 13 13 12 11 11 11 10 10 10 10 10 10 10
9 9 9 9 9 9 10 10 10 10 10 11 11 11 11 12 12 12 12 12 12 12 12 12 13 13 13 13 13 13 13 13 12 11 11 11 11 10 9 9 9 9 9
Wind_Speed
5 4 4 6 11 13 11 7 9 9 9 8 11 10 8 9 10 13 13 14 12 8 7 7 7 6 5 5 5 6 6 6 6 6 7 8 8 8 8 7 7 6 5
5 3 4 4 5 7 10 8 7 6 4 3 3 4 5 8 10 15 14 14 14 12 9 8 7 7 7 6 5 5 6 7 7 7 7 7 7 7 7 6 5 4 3
6 5 5 5 4 6 7 7 7 5 5 4 3 2 3 5 7 12 16 14 13 13 12 10 8 7 8 7 7 6 6 7 8 7 7 7 7 7 6 5 4 4 2
8 5 5 5 5 4 3 3 3 3 3 4 3 3 3 3 3 6 12 15 15 13 13 12 10 8 7 8 8 7 7 7 8 8 7 7 7 7 6 5 4 3 3
9 5 5 5 5 2 3 4 3 2 2 3 4 5 4 5 5 5 6 10 15 16 14 14 13 11 9 8 8 8 8 8 8 8 8 7 7 7 6 5 4 4 4
8 5 4 5 4 3 3 3 3 2 2 2 4 4 4 4 5 6 5 4 10 15 17 15 14 12 11 10 9 9 9 9 9 8 8 8 7 7 6 5 4 3 3
8 6 5 5 5 4 4 4 3 3 2 1 1 2 1 3 5 6 5 4 4 9 15 17 15 14 12 12 11 10 9 9 10 9 9 8 8 7 6 5 4 3 3
7 7 7 6 6 5 5 5 4 2 2 2 2 1 2 3 2 3 4 5 5 5 7 13 14 16 15 14 13 13 10 9 9 9 9 8 8 7 6 5 4 3 2
6 6 8 7 7 7 7 7 6 6 6 4 4 3 4 5 2 3 4 4 5 3 4 5 9 15 18 16 16 15 13 11 10 9 9 9 8 7 6 5 4 3 3
5 6 7 8 8 8 9 9 9 7 8 7 5 5 4 3 4 3 2 2 3 3 4 4 3 7 13 17 17 19 17 14 12 10 10 10 9 8 6 5 4 4 3
4 4 5 6 8 8 9 9 8 9 8 9 7 5 5 3 3 3 3 2 1 1 1 1 1 2 8 14 17 20 21 17 14 12 11 10 9 8 7 6 5 4 4
3 3 3 4 5 6 8 8 9 10 10 10 8 7 6 4 5 4 4 3 3 2 1 1 1 1 4 10 15 23 22 19 16 13 12 11 10 9 7 6 6 5 5
3 4 3 2 2 3 5 6 7 8 9 9 8 7 7 6 4 5 5 4 3 2 1 1 1 0 2 7 11 23 22 21 18 15 13 12 11 9 8 7 6 6 5
5 5 4 3 3 2 1 2 3 5 5 7 8 8 6 6 6 5 5 5 4 3 2 3 1 0 1 7 13 18 16 20 18 16 14 13 12 10 8 6 5 5 4
5 6 5 5 5 5 4 3 1 1 2 3 4 6 6 5 6 6 5 5 6 6 6 4 2 1 2 7 13 11 12 17 18 17 15 14 13 11 9 8 6 4 4
6 6 6 4 4 5 5 4 3 3 2 1 1 2 3 3 4 5 5 4 5 5 5 4 3 2 1 4 9 6 7 15 17 17 15 14 13 12 10 8 7 5 4
8 7 7 7 7 6 5 4 4 3 3 3 2 1 1 1 2 3 4 4 4 4 4 2 2 3 3 3 4 4 7 10 11 14 14 13 12 11 10 8 6 5 4
9 9 9 9 10 9 7 6 4 4 3 3 3 3 2 1 2 3 4 5 4 4 4 4 3 2 3 4 4 3 3 7 8 11 12 11 10 9 8 7 6 5 4
10 10 9 10 10 11 11 9 6 4 3 3 3 3 2 2 2 3 4 4 4 4 3 4 3 2 2 3 4 3 3 4 9 11 12 12 12 12 11 10 8 7 6
9 10 10 10 10 10 12 11 9 5 4 3 4 3 3 3 3 3 4 4 4 5 4 5 4 3 2 3 4 4 4 4 6 10 14 17 19 19 16 14 12 11 11
10 9 9 9 9 9 11 12 10 7 4 3 4 4 4 5 6 4 4 5 5 4 4 4 4 3 3 4 4 4 6 8 7 7 9 10 12 13 14 15 15 16 16
8 8 9 8 8 9 15 16 12 8 5 4 3 4 5 5 7 8 8 7 5 5 4 4 3 4 4 4 4 6 8 7 4 5 8 8 9 9 11 13 16 18 18
7 7 7 7 7 9 16 17 17 9 5 4 3 3 4 5 6 5 7 8 6 5 3 3 4 4 4 5 6 7 7 6 6 7 8 7 7 9 11 14 17 18 18
6 5 6 6 6 10 17 17 18 7 4 6 5 5 5 5 5 6 6 6 7 6 4 4 4 3 3 4 6 7 9 11 10 6 5 5 5 6 9 12 15 17 17
5 4 4 5 6 8 15 17 16 6 4 6 6 7 6 6 7 8 8 8 7 6 9 11 10 9 9 10 11 11 11 12 8 4 3 4 5 6 5 5 12 14 15
5 4 4 4 6 6 11 15 15 6 5 4 4 6 9 7 7 8 7 6 6 4 5 6 6 7 8 10 12 9 9 11 8 4 4 5 6 5 4 3 5 10 12
Wind_Direction
224 243 246 211 200 197 199 203 212 225 219 211 196 205 186 189 159 139 147 156 155 163 174 179 175 172 168 158 153 150 152 147 145 145 144 147 147 147 144 141 136 133 128
211 218 255 255 236 213 193 196 216 240 208 237 232 193 176 175 153 142 153 162 163 167 172 178 181 181 179 177 168 163 161 159 156 157 156 156 158 157 156 154 154 155 153
216 205 223 246 253 245 220 207 220 224 186 203 238 242 188 172 167 156 156 163 167 172 173 174 176 181 184 184 181 176 167 168 166 166 167 167 168 170 172 174 179 182 190
226 204 206 225 236 244 252 228 235 224 186 187 192 216 213 160 173 163 162 166 166 171 176 177 175 178 185 188 187 185 178 174 173 173 174 175 178 180 184 191 200 211 227
240 219 205 211 233 229 233 242 216 218 205 198 205 206 202 173 186 190 190 180 165 162 167 176 176 177 184 189 190 190 187 181 178 178 178 179 183 186 190 198 211 224 235
242 241 217 213 211 220 241 262 240 219 211 211 226 214 195 189 185 187 201 185 164 164 163 168 173 181 185 184 185 189 189 190 184 181 179 179 181 184 187 194 205 215 225
229 232 228 212 206 205 211 227 246 246 243 253 241 280 272 215 196 187 184 185 191 172 164 169 176 172 178 183 182 183 185 188 186 184 180 178 176 176 178 182 188 197 203
227 230 220 213 200 198 204 210 213 217 246 249 202 212 263 290 264 208 181 185 204 174 172 181 178 169 171 172 182 180 179 181 181 179 178 175 171 171 171 174 178 182 175
231 224 223 214 204 197 202 203 203 202 213 228 226 190 185 213 242 270 218 189 197 186 183 203 188 173 168 170 171 176 173 171 173 172 171 168 167 168 168 168 168 169 167
254 231 224 217 211 204 201 203 202 207 203 213 223 222 212 181 174 231 254 222 206 195 192 195 200 184 168 159 167 171 171 171 173 174 173 170 168 169 166 164 162 161 164
274 257 238 224 214 210 206 204 201 205 211 209 206 206 219 230 207 180 216 244 239 219 233 220 213 182 160 154 160 168 170 172 174 176 175 174 173 173 174 176 178 175 174
299 295 263 241 228 219 212 208 209 206 212 214 208 203 194 187 197 191 193 200 211 229 247 262 234 188 153 151 163 168 169 172 176 179 180 179 179 179 180 181 183 186 185
329 332 322 278 244 231 221 210 209 215 215 213 211 209 206 204 184 185 191 190 199 207 200 266 243 166 145 133 150 168 171 173 178 182 185 184 184 184 184 188 188 192 193
350 356 5 16 26 17 284 215 216 221 218 218 221 214 211 210 199 191 186 176 180 202 208 219 250 201 137 131 154 165 174 176 179 184 188 189 188 187 187 189 191 193 195
360 9 17 28 35 37 39 50 79 215 207 222 232 221 215 209 203 197 189 179 171 187 208 205 194 190 128 123 156 173 173 184 184 186 189 192 192 192 190 189 187 184 185
6 14 15 26 39 44 44 46 55 46 63 81 234 230 214 205 198 190 187 187 183 175 188 189 187 167 133 142 161 180 176 185 189 189 190 192 193 193 192 192 190 184 181
12 27 22 26 34 41 46 49 50 54 63 59 43 37 225 177 182 180 178 179 181 169 169 163 162 157 156 149 148 171 154 160 179 186 186 186 186 187 188 189 188 182 173
14 24 29 30 32 29 24 27 34 50 60 63 54 46 38 126 165 162 164 168 168 163 156 154 152 158 164 153 147 150 149 157 150 168 169 167 166 164 160 154 150 146 140
19 21 33 35 32 25 16 10 13 31 56 69 77 76 62 82 133 149 155 158 157 153 136 142 150 152 147 145 137 141 132 115 111 124 121 115 115 112 111 112 113 111 108
27 22 31 34 30 27 16 4 356 10 39 73 80 82 80 91 108 125 135 142 145 146 144 146 146 149 151 153 142 141 122 102 104 105 98 97 94 89 88 91 94 95 94
30 24 28 31 28 25 14 4 351 1 16 56 90 94 89 97 113 117 123 128 133 138 145 150 152 151 157 156 162 150 129 110 99 108 107 99 93 84 77 76 82 88 90
36 29 23 25 32 22 5 8 4 345 357 30 72 96 104 97 100 105 112 113 122 136 150 153 159 161 171 169 150 140 136 133 119 113 104 89 84 80 70 74 84 88 90
43 39 20 17 30 20 8 4 357 342 359 22 49 87 105 106 102 99 98 99 90 86 113 150 154 162 162 165 151 151 151 137 120 126 109 95 86 83 73 74 85 89 91
29 42 23 13 18 22 12 5 353 352 26 29 38 56 90 98 99 106 101 89 71 54 72 105 115 115 122 146 151 145 129 112 107 111 110 104 100 91 82 74 82 89 92
11 28 25 16 23 22 14 10 1 347 33 50 46 47 67 85 93 101 99 94 86 74 72 90 100 103 99 104 121 122 126 128 124 115 101 105 124 112 98 91 87 93 97
359 5 24 28 35 27 20 16 9 2 14 39 59 70 63 72 80 92 99 95 89 84 89 94 93 95 92 99 119 131 138 136 131 127 139 122 150 137 117 118 131 116 104
Height
1544 1544 1546 1547 1547 1548 1549 1551 1552 1553 1555 1558 1559 1560 1562 1563 1564 1564 1565 1566 1565 1565 1564 1564 1565 1566 1567 1568 1570 1571 1572 1573 1575 1576 1577 1578 1580 1581 1582 1583 1584 1585 1585
1541 1541 1542 1544 1545 1547 1548 1549 1551 1552 1555 1556 1558 1559 1561 1562 1563 1563 1564 1565 1565 1564 1564 1563 1564 1565 1566 1567 1569 1570 1572 1573 1574 1576 1577 1578 1580 1581 1582 1583 1584 1584 1585
1537 1538 1539 1540 1541 1543 1545 1547 1549 1551 1552 1554 1555 1557 1559 1560 1562 1562 1562 1563 1564 1564 1563 1563 1563 1564 1565 1566 1568 1569 1571 1572 1574 1575 1576 1578 1579 1581 1582 1583 1583 1584 1585
1533 1534 1534 1536 1538 1539 1540 1543 1545 1548 1550 1552 1553 1555 1557 1558 1560 1561 1561 1561 1562 1563 1563 1563 1563 1563 1564 1565 1567 1568 1570 1571 1573 1574 1576 1577 1578 1580 1581 1582 1583 1584 1584
1528 1529 1530 1532 1534 1536 1537 1538 1541 1544 1546 1549 1551 1553 1554 1556 1558 1559 1561 1561 1560 1561 1562 1562 1563 1563 1564 1565 1566 1567 1569 1570 1572 1573 1575 1576 1577 1579 1580 1581 1582 1582 1583
1523 1524 1526 1527 1529 1531 1532 1535 1537 1540 1543 1546 1548 1550 1551 1553 1555 1556 1558 1560 1560 1560 1560 1561 1562 1563 1563 1564 1565 1566 1567 1569 1570 1572 1573 1575 1576 1577 1578 1579 1580 1581 1582
1518 1519 1520 1522 1523 1525 1528 1530 1533 1536 1539 1542 1544 1546 1547 1549 1551 1553 1555 1557 1558 1559 1559 1560 1561 1561 1562 1563 1564 1565 1566 1567 1569 1570 1572 1573 1574 1576 1577 1578 1579 1579 1580
1511 1513 1515 1516 1518 1520 1523 1525 1528 1531 1534 1538 1540 1542 1544 1546 1547 1549 1550 1552 1555 1556 1557 1558 1559 1559 1560 1562 1563 1564 1565 1566 1567 1569 1570 1572 1573 1574 1575 1576 1577 1578 1578
1506 1507 1509 1511 1512 1514 1517 1520 1522 1525 1528 1532 1535 1538 1540 1540 1543 1545 1546 1548 1550 1552 1554 1556 1557 1558 1558 1559 1561 1562 1564 1565 1566 1567 1569 1570 1571 1573 1574 1575 1575 1576 1577
1501 1502 1503 1505 1507 1509 1511 1514 1517 1519 1523 1525 1529 1532 1535 1536 1539 1540 1542 1544 1545 1548 1550 1552 1555 1556 1557 1557 1559 1561 1562 1563 1565 1566 1567 1569 1570 1571 1572 1573 1574 1575 1575
1497 1497 1498 1499 1501 1503 1505 1508 1510 1513 1515 1518 1521 1525 1528 1531 1533 1536 1537 1539 1541 1543 1545 1548 1550 1553 1554 1555 1556 1558 1560 1562 1563 1565 1566 1568 1569 1570 1571 1572 1573 1573 1574
1493 1493 1494 1494 1496 1497 1499 1502 1504 1507 1509 1512 1515 1518 1521 1524 1526 1530 1532 1534 1537 1539 1541 1543 1546 1548 1550 1552 1553 1556 1558 1560 1562 1563 1565 1566 1568 1569 1570 1570 1571 1572 1573
1491 1491 1491 1491 1492 1493 1495 1497 1499 1501 1504 1507 1509 1512 1515 1518 1521 1524 1527 1530 1532 1535 1537 1539 1541 1544 1546 1548 1550 1553 1555 1557 1559 1561 1563 1565 1566 1567 1568 1569 1570 1571 1572
1490 1490 1489 1489 1490 1490 1491 1493 1495 1497 1499 1501 1504 1507 1509 1512 1515 1518 1521 1524 1527 1530 1532 1534 1537 1539 1542 1544 1547 1549 1552 1554 1557 1559 1561 1563 1565 1566 1567 1568 1569 1570 1570
1491 1490 1490 1489 1489 1489 1489 1490 1491 1493 1495 1497 1499 1501 1504 1507 1509 1512 1515 1519 1522 1524 1526 1529 1532 1534 1537 1540 1543 1545 1548 1551 1554 1556 1558 1561 1562 1564 1565 1566 1567 1568 1569
1493 1492 1491 1491 1490 1490 1490 1490 1490 1491 1492 1493 1496 1497 1499 1502 1504 1507 1510 1513 1516 1519 1521 1524 1527 1530 1533 1536 1539 1542 1545 1547 1550 1553 1555 1558 1560 1562 1563 1564 1565 1566 1567
1496 1495 1493 1493 1492 1491 1491 1490 1490 1490 1491 1492 1492 1494 1495 1497 1499 1502 1504 1507 1510 1514 1517 1520 1523 1526 1529 1532 1535 1538 1541 1544 1547 1550 1552 1555 1557 1559 1560 1562 1563 1564 1564
1499 1497 1496 1495 1493 1492 1492 1491 1491 1491 1491 1491 1491 1491 1492 1493 1495 1497 1500 1502 1505 1509 1512 1515 1519 1522 1526 1529 1532 1535 1538 1541 1543 1546 1549 1551 1554 1556 1558 1559 1560 1561 1562
1501 1500 1498 1496 1494 1493 1493 1492 1492 1491 1491 1491 1490 1490 1490 1491 1492 1494 1496 1499 1502 1505 1508 1512 1515 1519 1522 1526 1529 1532 1535 1538 1541 1543 1546 1548 1551 1553 1555 1557 1558 1559 1559
1503 1501 1499 1497 1496 1495 1494 1493 1492 1492 1492 1491 1490 1490 1490 1490 1491 1492 1494 1496 1499 1502 1505 1509 1513 1516 1519 1523 1526 1529 1533 1536 1538 1541 1543 1546 1548 1550 1552 1554 1555 1556 1557
1505 1503 1501 1499 1497 1496 1494 1493 1493 1492 1492 1492 1491 1491 1491 1490 1491 1492 1493 1495 1497 1500 1503 1506 1510 1513 1517 1520 1523 1527 1531 1534 1537 1539 1542 1544 1546 1548 1550 1552 1553 1554 1554
1506 1504 1501 1500 1498 1496 1495 1494 1493 1493 1492 1492 1492 1492 1492 1491 1492 1492 1494 1495 1498 1500 1503 1505 1508 1511 1515 1518 1521 1524 1528 1532 1536 1539 1541 1544 1546 1548 1549 1550 1552 1553 1553
1507 1505 1502 1500 1499 1497 1495 1494 1493 1493 1493 1493 1493 1493 1492 1493 1493 1494 1495 1497 1499 1501 1504 1506 1508 1510 1513 1516 1519 1522 1526 1530 1533 1537 1540 1543 1546 1547 1549 1550 1551 1552 1553
1509 1506 1504 1502 1500 1498 1496 1495 1494 1493 1493 1493 1493 1493 1493 1494 1495 1496 1497 1499 1501 1503 1504 1506 1508 1510 1512 1515 1518 1521 1525 1529 1533 1537 1540 1543 1545 1547 1549 1550 1552 1553 1554
1510 1508 1506 1504 1501 1499 1497 1495 1494 1494 1494 1494 1493 1494 1494 1495 1496 1498 1499 1501 1503 1504 1506 1507 1509 1510 1512 1515 1517 1520 1524 1528 1532 1537 1540 1542 1545 1547 1550 1551 1552 1553 1554
1512 1510 1508 1506 1503 1500 1498 1496 1495 1494 1494 1494 1494 1494 1495 1496 1498 1500 1501 1503 1505 1506 1508 1509 1511 1512 1514 1516 1519 1522 1525 1528 1532 1536 1540 1542 1544 1547 1550 1552 1553 1554 1554